Weather History for Millville, NJ

Change the Weather History Date:

Wednesday, February 6, 2013

  Actual Average Record
Temperature  
Mean Temperature 31 °F -  
Max Temperature 39 °F 39 °F 71 °F (2008)
Min Temperature 23 °F 22 °F 1 °F (2009)
Degree Days  
Heating Degree Days 34    
Moisture  
Dew Point 24 °F    
Average Humidity 76    
Maximum Humidity 100    
Minimum Humidity 49    
Precipitation  
Precipitation 0.00 in - - ()
Sea Level Pressure  
Sea Level Pressure 30.12 in    
Wind  
Wind Speed 4 mph (NW)    
Max Wind Speed 16 mph    
Max Gust Speed 25 mph    
Visibility 6 miles    
Events      
Averages and records for this station are not official NWS values.
T = Trace of Precipitation, MM = Missing Value Source: NWS Daily Summary

Daily Weather History Graph

Daily Weather History Graph

Search for Another Location

Airport:

Trip Planner

Search our weather history database for the weather conditions in past years. The results will help you decide how hot, cold, wet, or windy it might be!

Date:

Astronomy

Feb. 06, 2013 Rise Set
Actual Time 7:02 AM EST 5:26 PM EST
Civil Twilight 6:34 AM EST 5:54 PM EST
Nautical Twilight 6:02 AM EST 6:26 PM EST
Astronomical Twilight 5:31 AM EST 6:58 PM EST
Moon 3:43 AM EST (2/6) 1:43 PM EST (2/6)
Length of Visible Light 11h 20m
Length of Day
10h 24m
Waning Crescent, 17% of the Moon is Illuminated
Feb 6
Waning Crescent
Feb 10
New
Feb 17
First Quarter
Feb 25
Full
Mar 4
Last Quarter

Hourly Weather History & Observations

Time (EST) Temp. Windchill Dew Point Humidity Pressure Visibility Wind Dir Wind Speed Gust Speed Precip Events Conditions
12:54 AM - - - N/A% 29.93 in 6.0 mi Calm Calm - N/A   Haze
1:54 AM 28.0 °F - 26.1 °F 92% 29.94 in 4.0 mi Calm Calm - N/A   Clear
2:54 AM 27.0 °F - 26.1 °F 96% 29.95 in 3.0 mi Calm Calm - N/A   Clear
3:16 AM 26.6 °F 22.6 °F 24.8 °F 93% 29.95 in 2.5 mi West 3.5 mph - N/A   Clear
3:35 AM 24.8 °F - 24.8 °F 100% 29.95 in 3.0 mi Calm Calm - N/A   Clear
3:54 AM 24.1 °F - 21.9 °F 91% 29.96 in 3.0 mi Calm Calm - N/A   Clear
4:54 AM 25.0 °F - 24.1 °F 96% 29.99 in 2.5 mi Calm Calm - N/A   Clear
5:07 AM 26.6 °F 21.2 °F 24.8 °F 93% 30.00 in 3.0 mi NNW 4.6 mph - N/A   Partly Cloudy
5:18 AM 28.4 °F 23.3 °F 26.6 °F 93% 30.01 in 2.5 mi NW 4.6 mph - N/A   Mostly Cloudy
5:29 AM 30.2 °F 25.4 °F 28.4 °F 93% 30.01 in 3.0 mi NNW 4.6 mph - N/A   Overcast
5:54 AM 30.9 °F 25.2 °F 28.9 °F 92% 30.03 in 3.0 mi West 5.8 mph - N/A   Overcast
6:54 AM 32.0 °F 26.4 °F 28.9 °F 88% 30.06 in 4.0 mi NNW 5.8 mph - N/A   Overcast
7:54 AM 33.1 °F 27.7 °F 27.0 °F 78% 30.09 in 3.0 mi NNW 5.8 mph - N/A   Haze
8:54 AM 34.0 °F 27.2 °F 27.0 °F 75% 30.12 in 4.0 mi NNW 8.1 mph - N/A   Haze
9:54 AM 37.0 °F 30.4 °F 25.0 °F 62% 30.15 in 6.0 mi NNW 9.2 mph - N/A   Haze
10:54 AM 39.0 °F 31.8 °F 25.0 °F 57% 30.17 in 10.0 mi NNW 11.5 mph 23.0 mph N/A   Overcast
11:54 AM 39.9 °F 31.4 °F 24.1 °F 53% 30.17 in 10.0 mi NW 16.1 mph 25.3 mph N/A   Mostly Cloudy
12:54 PM 39.0 °F 30.6 °F 23.0 °F 53% 30.17 in 10.0 mi WNW 15.0 mph 20.7 mph N/A   Overcast
1:54 PM 39.9 °F 32.5 °F 21.9 °F 49% 30.17 in 10.0 mi WNW 12.7 mph 20.7 mph N/A   Overcast
2:54 PM 39.0 °F 30.3 °F 23.0 °F 53% 30.19 in 10.0 mi NW 16.1 mph 21.9 mph N/A   Overcast
3:54 PM 39.9 °F 31.8 °F 21.9 °F 49% 30.19 in 10.0 mi WNW 15.0 mph - N/A   Overcast
4:54 PM 39.0 °F 31.4 °F 21.9 °F 50% 30.22 in 10.0 mi NW 12.7 mph 20.7 mph N/A   Mostly Cloudy
5:54 PM 36.0 °F 31.1 °F 21.0 °F 55% 30.24 in 10.0 mi WNW 5.8 mph - N/A   Clear
6:54 PM 33.1 °F - 21.0 °F 61% 30.28 in 10.0 mi Calm Calm - N/A   Clear
7:54 PM 28.0 °F 24.2 °F 21.0 °F 75% 30.30 in 10.0 mi NW 3.5 mph - N/A   Clear
8:54 PM 24.1 °F - 19.9 °F 84% 30.31 in 10.0 mi Calm Calm - N/A   Clear
9:54 PM 23.0 °F - 19.0 °F 85% 30.34 in 10.0 mi Calm Calm - N/A   Clear
10:54 PM 24.1 °F - 21.0 °F 88% 30.35 in 9.0 mi Calm Calm - N/A   Clear
11:54 PM 24.1 °F - 19.0 °F 81% 30.36 in 8.0 mi Calm Calm - N/A   Clear